Accueil
METAR-TAF:

METAR-TAF

Aéroports :

Payerne, Suisse

Aérodrome de Payerne

latitude: 46-49N, longitude: 006-57E, altitude: 490 m

Observation

Le bulletin a été fait il y a 1 heure et 10 minutes, à 21:50 UTC
Vent calme
Température 14°C
Humidité 72%
Pression 1025 hPa
Visibilité 10 km ou plus

METAR: LSMP 202150Z AUTO 00000KT 9999NDV NCD 14/09 Q1025 RMK

Heure: 01:00 (23:00 UTC)


TAF: absent

Observations et prévisions météorologiques de plus de 4000 aéroports (messages METAR et TAF).

Les stations disponibles sont représentées par des disques jaunes et rouges sur la carte.

Passer la souris dessus pour voir le nom de la station.

Cliquer dessus pour voir les observations et prévisions météorologiques.

Pour changer de carte: cliquez sur les boutons verts avec une croix noire pour zoomer, sur le bouton vert avec un tiret pour effectuer un zoom arrière, ou sur les flèches vertes pour les cartes adjacentes.


METAR-TAF: